Home   Weather   Aberdeen   Past weeks

Flag for United Kingdom Past Weather in Aberdeen, Scotland, United Kingdom — Yesterday and Last 2 Weeks

Now
41 °F

Passing clouds.


Feels Like: 36 °F
Forecast: N/A
Wind: 8 mph from West

Location: Aberdeen / Dyce

Current Time: Dec 3, 2016 at 7:46:17 pm

Latest Report: Dec 3, 2016 at 7:20 pm


Visibility: N/A

Pressure: 30.33 "Hg

Humidity: 81%

Dew Point: 36 °F

Location of AberdeenLocation

Past Weather in Aberdeen — Graph

°F

Aberdeen Temperature Yesterday

Maximum temperature yesterday: 46 °F (at 2:50 am)
Minimum temperature yesterday: 39 °F (at 10:50 pm)
Average temperature yesterday: 44 °F

High & Low Weather Summary for the Past Weeks

 TemperatureHumidityPressure
High52 °F (Nov 26, 11:50 am)100% (Nov 24, 6:50 am)30.51 "Hg (Nov 24, 6:50 am)
Low19 °F (Nov 20, 6:20 am)57% (Nov 19, 1:50 pm)29.18 "Hg (Nov 18, 6:20 pm)
Average37 °F84%30.07 "Hg
* Reported Nov 18 6:20 pm — Dec 3 6:20 pm, Aberdeen, Weather by CustomWeather, © 2016

Note: Actual official high and low records may vary slightly from our data, if they occured in-between our weather recording intervals... More about our weather records

Advertising

Aberdeen Weather History for the Previous 24 Hours

Scroll right to see more
 ConditionsComfort  
Time TempWeatherWind HumidityBarometerVisibility
6:20 pm
Sat, Dec 3
41 °FPassing clouds.7 mph76%30.30 "HgN/A
5:50 pm41 °FPartly cloudy.6 mph81%30.30 "HgN/A
5:20 pm41 °FPassing clouds.7 mph81%30.30 "HgN/A
4:50 pm43 °FPassing clouds.7 mph76%30.30 "HgN/A
4:20 pm41 °FPartly cloudy.7 mph81%30.30 "HgN/A
3:50 pm41 °FPassing clouds.5 mph81%30.30 "HgN/A
3:20 pm41 °FPartly sunny.2 mph76%30.30 "HgN/A
2:50 pm43 °FPartly sunny.3 mph76%30.30 "HgN/A
2:20 pm43 °FPartly sunny.2 mph76%30.30 "HgN/A
1:50 pm43 °FPartly sunny.5 mph76%30.30 "HgN/A
1:20 pm43 °FPartly sunny.3 mph76%30.30 "HgN/A
12:50 pm43 °FPartly sunny.5 mph76%30.30 "HgN/A
12:20 pm43 °FPartly sunny.5 mph81%30.30 "HgN/A
11:50 am43 °FPartly sunny.6 mph81%30.30 "HgN/A
11:20 am43 °FPartly sunny.6 mph76%30.33 "HgN/A
10:50 am43 °FPartly sunny.6 mph76%30.33 "HgN/A
10:20 am43 °FPartly sunny.5 mph81%30.33 "HgN/A
9:50 am39 °FPartly sunny.5 mph93%30.33 "HgN/A
9:20 am39 °FPartly sunny.1 mph93%30.30 "HgN/A
8:50 am39 °FPartly sunny.1 mph93%30.30 "HgN/A
8:20 am39 °FPassing clouds.No wind93%30.30 "HgN/A
7:50 am37 °FPassing clouds.1 mph100%30.30 "HgN/A
7:20 am37 °FClear.1 mph100%30.30 "Hg10 mi
6:50 am39 °FClear.2 mph93%30.30 "Hg10 mi
6:20 am37 °FPassing clouds.1 mph100%30.30 "HgN/A
5:50 am37 °FPassing clouds.3 mph100%30.30 "HgN/A
5:20 am37 °FPassing clouds.3 mph100%30.30 "HgN/A
4:50 am37 °FFog.3 mph93%30.30 "HgN/A
4:20 am36 °FFog.No wind100%30.30 "Hg2 mi
3:50 am36 °FFog.1 mph100%30.30 "Hg2 mi
3:20 am36 °FFog.1 mph93%30.30 "Hg1 mi
2:50 am36 °FPassing clouds.3 mph93%30.30 "Hg1 mi
2:20 am36 °FFog.1 mph100%30.33 "Hg0 mi
1:50 am37 °FSleet. Overcast.2 mph100%30.33 "Hg4 mi
1:20 am37 °FFog.1 mph100%30.33 "Hg1 mi
12:50 am39 °FSleet. Overcast.1 mph93%30.33 "Hg2 mi
12:20 am39 °FFog.1 mph100%30.33 "Hg0 mi
11:50 pm
Fri, Dec 2
39 °FFog.2 mph93%30.33 "Hg0 mi
11:20 pm39 °FFog.2 mph93%30.33 "Hg0 mi
10:50 pm39 °FSleet. Overcast.1 mph100%30.33 "HgN/A
10:20 pm41 °FQuite cool.2 mph100%30.33 "HgN/A
9:50 pm41 °FFog.1 mph100%30.33 "HgN/A
9:20 pm43 °FLight rain. Passing clouds.2 mph93%30.33 "HgN/A
8:50 pm43 °FPassing clouds.2 mph93%30.33 "HgN/A
8:20 pm45 °FFog.3 mph93%30.33 "HgN/A
7:50 pm45 °FFog.5 mph93%30.33 "HgN/A
7:20 pm45 °FPassing clouds.5 mph93%30.36 "Hg6 mi
Weather by CustomWeather, © 2016

See weather overviewHow to use our weather pages